Regional Weather Roundup
Issued by NWS

Home | Current Version | Previous Version | Graphics & Text | Print | Product List | Glossary On
Versions: 1 2 3 4 5 6 7 8 9 10 11 12 13 14 15 16 17 18 19 20 21 22 23 24 25 26 27 28 29 30 31 32 33 34 35 36 37 38 39 40 41 42 43 44 45 46 47 48 49 50
000
ASUS43 KOAX 280610
RWRNE

WEATHER ROUNDUP FOR NEBRASKA
NATIONAL WEATHER SERVICE OMAHA NE
1200 AM CST FRI NOV 28 2014

NOTES: SATELLITE DATA IS BEING USED TO AUGMENT CLOUD COVER ABOVE
       12000 FEET.
       "FAIR" INDICATES FEW OR NO CLOUDS BELOW 12,000 FEET WITH NO
       SIGNIFICANT WEATHER AND/OR OBSTRUCTIONS TO VISIBILITY.

  * THESE STATIONS DO NOT REPORT WEATHER SUCH AS RAIN...SNOW OR FOG.

NEZ001>004-019>022-054>056-280700-
NEBRASKA PANHANDLE

CITY           SKY/WX    TMP DP  RH WIND       PRES   REMARKS
SCOTTSBLUFF    CLEAR     32  26  78 E6        29.97F WCI  26
6HR MIN TEMP:  30; 6HR MAX TEMP:  51;

ALLIANCE       PTCLDY    30  24  78 W9        29.95S WCI  22
6HR MIN TEMP:  28; 6HR MAX TEMP:  40;

CHADRON        MOCLDY   N/A N/A N/A SW6       29.91F
KIMBALL        CLEAR     40  25  56 S5        30.00S
SIDNEY         CLEAR     35  26  69 W12       30.00F WCI  27
6HR MIN TEMP:  31; 6HR MAX TEMP:  43;

$$

NEZ057>060-069>072-079>082-280700-
SOUTHWEST NEBRASKA

CITY           SKY/WX    TMP DP  RH WIND       PRES   REMARKS
NORTH PLATTE   CLEAR     21  17  84 CALM      29.96F
6HR MIN TEMP:  20; 6HR MAX TEMP:  34;

IMPERIAL       CLEAR     39  26  59 W13       29.99F WCI  31
6HR MIN TEMP:  39; 6HR MAX TEMP:  49;

LEXINGTON      CLEAR     22  17  81 CALM      29.97S
MCCOOK         CLEAR     36  24  62 W13       29.97F WCI  27
6HR MIN TEMP:  35; 6HR MAX TEMP:  47;

OGALLALA       PTCLDY    32  30  90 W5        29.98F WCI  28
$$

NEZ005>010-023>029-035>040-094-280700-
NORTH CENTRAL NEBRASKA

CITY           SKY/WX    TMP DP  RH WIND       PRES   REMARKS
VALENTINE      CLEAR     33  28  81 W6        29.87F WCI  28
6HR MIN TEMP:  31; 6HR MAX TEMP:  42;

AINSWORTH      CLEAR     34  24  66 SW10      29.88F WCI  26
BROKEN BOW     CLEAR     21  15  78 CALM      29.95F
6HR MIN TEMP:  20; 6HR MAX TEMP:  38;

O`NEILL        CLEAR     30  21  68 S15       29.91F WCI  19
ORD            PTCLDY    22  15  75 CALM      29.97F
6HR MIN TEMP:  22; 6HR MAX TEMP:  33;

THEDFORD       CLEAR     35  27  73 SW3       29.91F
$$

NEZ041-046>049-061>064-073>077-083>087-280700-
SOUTH CENTRAL NEBRASKA

CITY           SKY/WX    TMP DP  RH WIND       PRES   REMARKS
GRAND ISLAND   CLEAR     28  18  66 S9        29.99F WCI  19
6HR MIN TEMP:  28; 6HR MAX TEMP:  33;

AURORA         CLEAR     29  18  64 S12       29.99F WCI  19
HASTINGS       CLEAR     31  18  58 S8        29.99F WCI  23
6HR MIN TEMP:  31; 6HR MAX TEMP:  34;

HEBRON         CLEAR     33  16  50 S9G16     30.04F WCI  25
HOLDREGE       CLEAR     31  21  66 S7        29.97S WCI  24
KEARNEY *      CLEAR     27  19  74 S3        29.99S
YORK           CLEAR     27  18  69 S10       30.01F WCI  17
$$

NEZ011>018-030>034-042>045-280700-
NORTHEAST NEBRASKA

CITY           SKY/WX    TMP DP  RH WIND       PRES   REMARKS
NORFOLK        PTCLDY    23  16  74 SE9       29.99F WCI  13
6HR MIN TEMP:  21; 6HR MAX TEMP:  24;

ALBION         PTCLDY    22  17  81 SE5       29.99F WCI  15
BLAIR          CLEAR     26  19  74 SE15G21   30.08F WCI  13
COLUMBUS *     PTCLDY    27  16  63 SE7       30.04F WCI  19
FREMONT        PTCLDY    26  20  77 SE13      30.07F WCI  15
TEKAMAH        PTCLDY    22  15  75 SE15      30.10F WCI   9
6HR MIN TEMP:  20; 6HR MAX TEMP:  22;

WAYNE          CLEAR     19  15  82 S13       30.01F WCI   7
$$

NEZ050>053-065>068-078-088>093-280700-
SOUTHEAST NEBRASKA

CITY           SKY/WX    TMP DP  RH WIND       PRES   REMARKS
LINCOLN        CLEAR     27  18  69 S10       30.08F WCI  17
6HR MIN TEMP:  26; 6HR MAX TEMP:  29;

OMAHA EPPLEY   CLEAR     25  18  74 SE17      30.14F WCI  12
6HR MIN TEMP:  22; 6HR MAX TEMP:  25;

BEATRICE       CLEAR     31  19  62 S14       30.07F WCI  21
FALLS CITY     CLEAR     27  22  81 S14       30.16F WCI  16
6HR MIN TEMP:  25; 6HR MAX TEMP:  29;

NEBRASKA CITY  CLEAR     28  19  70 S15       30.13F WCI  16
PLATTSMOUTH    CLEAR     26  19  76 SE15      30.11F WCI  13
$$

NEZ044-045-051>053-067-280700-
OMAHA AREA

CITY           SKY/WX    TMP DP  RH WIND       PRES   REMARKS
OMAHA EPPLEY   CLEAR     25  18  74 SE17      30.14F WCI  12
6HR MIN TEMP:  22; 6HR MAX TEMP:  25;

BLAIR          CLEAR     26  19  74 SE15G21   30.08F WCI  13
FREMONT        PTCLDY    26  20  77 SE13      30.07F WCI  15
MILLARD        CLEAR     26  19  76 SE8       30.12F WCI  17
OFFUTT AFB     CLEAR     22  18  83 SE7       30.13F WCI  14
PLATTSMOUTH    CLEAR     26  19  76 SE15      30.11F WCI  13
WAHOO          FAIR      25  19  79 SE9       30.08F WCI  15
$$



USA.gov is the U.S. government's official web portal to all federal, state and local government web resources and services.